FW8343 Weather Reports


time (UTC)temp
F
wind
direction
speed
knots
gust
knots
rain 1hr
in
rain 24hr
in
rain mn
in
humidity
%
barometer
mb
20260902070035 66 0 0.0 0.0 0.00 0.00 0.00 81 1015.3
20260902065520 66 0 0.0 0.0 0.00 0.00 0.00 80 1015.0
20260902065020 66 0 0.0 0.0 0.00 0.00 0.00 83 1014.8
20260902064540 66 0 0.0 0.0 0.00 0.00 0.00 78 1014.9
20260902064022 66 0 0.0 0.0 0.00 0.00 0.00 78 1014.9
20260902063525 66 0 0.0 0.0 0.00 0.00 0.00 78 1014.8
20260902063036 66 0 0.0 0.0 0.00 0.00 0.00 79 1014.7
20260902062519 66 0 0.0 0.0 0.00 0.00 0.00 80 1015.0
20260902062021 66 0 0.0 0.0 0.00 0.00 0.00 80 1015.3
20260902061544 66 0 0.0 0.0 0.00 0.00 0.00 77 1015.2
20260902061021 66 0 0.0 0.9 0.00 0.00 0.00 77 1015.2
20260902060519 66 0 0.0 0.9 0.00 0.00 0.00 77 1015.2
20260902060040 66 0 0.0 0.0 0.00 0.00 0.00 76 1015.2
20260902055525 66 0 0.0 0.0 0.00 0.00 0.00 76 1015.4
20260902055020 66 0 0.0 0.0 0.00 0.00 0.00 76 1015.4
20260902054540 66 0 0.0 0.0 0.00 0.00 0.00 75 1015.2
20260902054021 67 0 0.0 0.0 0.00 0.00 0.00 75 1015.2
20260902053521 67 0 0.0 0.0 0.00 0.00 0.00 74 1015.1
20260902053036 67 0 0.0 0.0 0.00 0.00 0.00 75 1015.1
20260902052521 67 0 0.0 0.0 0.00 0.00 0.00 75 1015.3
20260902052026 66 0 0.0 0.0 0.00 0.00 0.00 75 1015.3
20260902051535 66 0 0.0 0.0 0.00 0.00 0.00 76 1015.3
20260902051018 66 0 0.0 0.0 0.00 0.00 0.00 76 1015.4
20260902050518 66 0 0.0 0.0 0.00 0.00 0.00 77 1015.5
20260902050040 66 0 0.0 0.0 0.00 0.00 0.00 77 1015.5
20260902045519 66 0 0.0 0.0 0.00 0.00 0.00 76 1015.5
20260902045020 66 0 0.0 0.0 0.00 0.00 0.00 76 1015.5
20260902044535 66 0 0.0 0.0 0.00 0.00 0.00 75 1015.4
20260902044020 66 0 0.0 0.0 0.00 0.00 0.00 76 1015.5
20260902043521 66 0 0.0 1.7 0.00 0.00 0.00 74 1015.6
20260902043036 66 0 0.0 1.7 0.00 0.00 0.00 75 1015.8
20260902042519 66 210 0.0 1.7 0.00 0.00 0.00 78 1015.8
20260902042019 66 0 0.0 0.0 0.00 0.00 0.00 77 1015.6
20260902041532 66 0 0.0 0.0 0.00 0.00 0.00 74 1015.7
20260902041016 66 0 0.0 0.0 0.00 0.00 0.00 74 1015.5
20260902040518 66 0 0.0 0.0 0.00 0.00 0.00 73 1015.5
20260902040034 66 0 0.0 0.0 0.00 0.00 0.00 73 1015.4
20260902035525 66 0 0.0 0.0 0.00 0.00 0.00 73 1015.3
20260902035026 66 0 0.0 0.0 0.00 0.00 0.00 73 1015.3
20260902034533 65 0 0.0 0.0 0.00 0.00 0.00 74 1015.4
20260902034019 65 0 0.0 0.0 0.00 0.00 0.00 74 1015.4
20260902033521 65 0 0.0 0.0 0.00 0.00 0.00 76 1015.4
20260902033041 65 0 0.0 0.0 0.00 0.00 0.00 78 1015.3
20260902032519 65 0 0.0 0.0 0.00 0.00 0.00 79 1015.3
20260902032024 65 0 0.0 0.0 0.00 0.00 0.00 79 1015.2
20260902031536 64 0 0.0 0.0 0.00 0.00 0.00 79 1015.2
20260902031018 64 0 0.0 0.0 0.00 0.00 0.00 78 1015.1
20260902030516 64 0 0.0 0.0 0.00 0.00 0.00 77 1015.0
20260902030035 64 0 0.0 0.0 0.00 0.00 0.00 76 1015.0
20260902025521 65 0 0.0 0.0 0.00 0.00 0.00 75 1015.3
20260902025022 65 0 0.0 0.0 0.00 0.00 0.00 73 1015.2
20260902024539 66 0 0.0 0.0 0.00 0.00 0.00 72 1015.1
20260902024018 67 0 0.0 0.0 0.00 0.00 0.00 71 1015.1
20260902023521 68 0 0.0 0.0 0.00 0.00 0.00 69 1015.0
20260902023039 68 0 0.0 0.0 0.00 0.00 0.00 68 1015.1
20260902022521 69 0 0.0 0.0 0.00 0.00 0.00 68 1015.1
20260902022020 69 0 0.0 0.0 0.00 0.00 0.00 70 1015.1
20260902021545 69 0 0.0 0.0 0.00 0.00 0.00 66 1015.2
20260902021016 69 0 0.0 0.0 0.00 0.00 0.00 66 1015.2
20260902020517 69 0 0.0 0.0 0.00 0.00 0.00 65 1015.1
20260902020035 70 0 0.0 0.0 0.00 0.00 0.00 65 1015.1
20260902015520 70 0 0.0 0.0 0.00 0.00 0.00 64 1015.0
20260902015023 70 0 0.0 0.0 0.00 0.00 0.00 65 1015.0
20260902014538 70 0 0.0 0.0 0.00 0.00 0.00 64 1014.9
20260902014020 71 0 0.0 0.0 0.00 0.00 0.00 63 1014.8
20260902013524 71 0 0.0 0.0 0.00 0.00 0.00 63 1014.7
20260902013037 71 0 0.0 0.0 0.00 0.00 0.00 63 1014.7
20260902012521 72 0 0.0 0.0 0.00 0.00 0.00 62 1014.7
20260902012019 72 0 0.0 0.0 0.00 0.00 0.00 60 1014.6
20260902011534 72 0 0.0 0.0 0.00 0.00 0.00 60 1014.6
20260902011019 73 0 0.0 0.0 0.00 0.00 0.00 59 1014.6
20260902010522 73 0 0.0 0.0 0.00 0.00 0.00 58 1014.5
20260902010032 73 0 0.0 0.0 0.00 0.00 0.00 58 1014.5
20260902005521 74 0 0.0 0.0 0.00 0.00 0.00 57 1014.5
20260902005020 74 0 0.0 0.0 0.00 0.00 0.00 57 1014.6
20260902004534 74 0 0.0 0.9 0.00 0.00 0.00 56 1014.5
20260902004023 75 0 0.0 0.9 0.00 0.00 0.00 56 1014.3
20260902003519 75 0 0.0 0.0 0.00 0.00 0.00 55 1014.3
20260902003037 75 0 0.0 0.0 0.00 0.00 0.00 55 1014.2
20260902002519 76 0 0.0 0.0 0.00 0.00 0.00 54 1014.2
20260902002019 76 0 0.0 1.7 0.00 0.00 0.00 53 1014.3
20260902001534 76 0 0.0 1.7 0.00 0.00 0.00 53 1014.4
20260902001019 77 0 0.0 1.7 0.00 0.00 0.00 53 1014.5
20260902000519 77 0 0.0 1.7 0.00 0.00 0.00 54 1014.4
20260902000037 77 0 0.0 1.7 0.00 0.00 0.00 52 1014.3
20260901235521 77 0 0.0 3.5 0.00 0.00 0.00 51 1014.4
20260901235021 77 0 0.0 3.5 0.00 0.00 0.00 51 1014.3
20260901234535 78 221 0.0 3.5 0.00 0.00 0.00 52 1014.2
20260901234021 78 0 0.0 6.1 0.00 0.00 0.00 51 1014.3
20260901233520 78 0 0.9 6.1 0.00 0.00 0.00 49 1014.1
20260901233052 78 228 1.7 6.1 0.00 0.00 0.00 50 1014.2
20260901232516 78 0 0.9 3.5 0.00 0.00 0.00 49 1014.2
20260901232021 79 0 0.9 4.3 0.00 0.00 0.00 47 1014.1
20260901231538 79 0 0.9 4.3 0.00 0.00 0.00 50 1014.1
20260901231020 79 250 0.9 4.3 0.00 0.00 0.00 51 1014.0
20260901230525 79 0 0.9 4.3 0.00 0.00 0.00 49 1014.1
20260901230038 79 0 0.9 5.2 0.00 0.00 0.00 48 1014.1
20260901225521 79 257 0.9 6.1 0.00 0.00 0.00 47 1014.0
20260901225020 79 218 0.9 6.1 0.00 0.00 0.00 47 1014.0
20260901224536 79 229 0.9 6.1 0.00 0.00 0.00 47 1014.0
20260901224016 79 0 0.9 8.7 0.00 0.00 0.00 46 1014.0
20260901223516 80 224 1.7 8.7 0.00 0.00 0.00 45 1013.9
20260901223036 80 232 1.7 8.7 0.00 0.00 0.00 45 1014.1
20260901222526 80 311 1.7 6.1 0.00 0.00 0.00 46 1014.1
20260901222022 81 244 0.9 2.6 0.00 0.00 0.00 48 1014.1
20260901221536 81 229 0.9 3.5 0.00 0.00 0.00 46 1014.0
20260901221024 80 275 0.9 5.2 0.00 0.00 0.00 47 1014.1
20260901220519 80 242 1.7 5.2 0.00 0.00 0.00 46 1014.0
20260901220036 80 193 0.9 6.1 0.00 0.00 0.00 48 1014.0
20260901215521 80 257 0.9 6.1 0.00 0.00 0.00 46 1014.1
20260901215020 80 264 0.9 6.1 0.00 0.00 0.00 46 1014.1
20260901214539 80 197 1.7 7.0 0.00 0.00 0.00 46 1014.1
20260901214016 80 229 1.7 7.0 0.00 0.00 0.00 46 1014.1
20260901213518 80 244 0.9 7.8 0.00 0.00 0.00 48 1014.1
20260901213040 80 263 2.6 7.8 0.00 0.00 0.00 50 1014.2
20260901212519 80 224 3.5 6.1 0.00 0.00 0.00 50 1014.2
20260901212021 80 227 0.9 7.8 0.00 0.00 0.00 50 1014.1
20260901211535 80 229 0.9 10.4 0.00 0.00 0.00 51 1014.1
20260901211022 80 224 4.3 10.4 0.00 0.00 0.00 51 1014.1
20260901210520 80 234 1.7 7.8 0.00 0.00 0.00 51 1014.1
20260901210035 80 223 2.6 9.6 0.00 0.00 0.00 51 1014.1
20260901205519 80 227 2.6 9.6 0.00 0.00 0.00 51 1014.0
20260901205021 80 209 3.5 9.6 0.00 0.00 0.00 52 1013.9
20260901204535 80 231 4.3 9.6 0.00 0.00 0.00 51 1014.0
20260901204021 80 226 2.6 8.7 0.00 0.00 0.00 50 1014.0
20260901203520 81 239 1.7 7.0 0.00 0.00 0.00 51 1013.9
20260901203056 81 226 0.9 7.0 0.00 0.00 0.00 48 1013.8
20260901202518 81 217 2.6 5.2 0.00 0.00 0.00 48 1013.9
20260901202019 82 262 0.9 4.3 0.00 0.00 0.00 46 1013.9
20260901201535 82 273 0.9 7.0 0.00 0.00 0.00 46 1014.0
20260901201021 82 229 1.7 7.0 0.00 0.00 0.00 46 1014.1
20260901200519 82 275 1.7 7.0 0.00 0.00 0.00 43 1014.1
20260901200041 82 259 1.7 11.3 0.00 0.00 0.00 46 1013.9
20260901195520 82 268 1.7 11.3 0.00 0.00 0.00 43 1014.1
20260901195022 83 225 2.6 7.8 0.00 0.00 0.00 42 1014.1
20260901194541 83 263 0.9 7.8 0.00 0.00 0.00 43 1014.2
20260901194021 83 232 1.7 12.2 0.00 0.00 0.00 43 1014.2
20260901193519 83 227 3.5 12.2 0.00 0.00 0.00 42 1014.3
20260901193040 84 225 0.9 3.5 0.00 0.00 0.00 43 1014.2
20260901192519 84 305 0.0 7.0 0.00 0.00 0.00 41 1014.3
20260901192018 84 305 0.0 7.0 0.00 0.00 0.00 41 1014.2
20260901191534 84 226 1.7 7.0 0.00 0.00 0.00 40 1014.3
20260901191021 84 306 0.9 7.8 0.00 0.00 0.00 40 1014.3
20260901190521 84 282 0.0 7.8 0.00 0.00 0.00 43 1014.4
20260901190037 84 228 3.5 7.8 0.00 0.00 0.00 44 1014.4
20260901185520 84 321 0.9 6.1 0.00 0.00 0.00 42 1014.4
20260901185021 84 250 0.9 6.1 0.00 0.00 0.00 40 1014.4
20260901184534 84 288 1.7 6.1 0.00 0.00 0.00 41 1014.4
20260901184019 84 267 0.9 7.8 0.00 0.00 0.00 42 1014.5
20260901183518 84 235 2.6 7.8 0.00 0.00 0.00 41 1014.7
20260901183039 84 266 1.7 10.4 0.00 0.00 0.00 38 1014.7
20260901182521 84 257 1.7 10.4 0.00 0.00 0.00 40 1014.8
20260901182020 85 240 0.9 6.1 0.00 0.00 0.00 42 1014.7
20260901181533 84 254 1.7 5.2 0.00 0.00 0.00 42 1014.8
20260901181022 84 300 0.9 6.1 0.00 0.00 0.00 41 1014.8
20260901180520 83 264 0.9 6.1 0.00 0.00 0.00 42 1014.9
20260901180033 83 210 1.7 6.1 0.00 0.00 0.00 45 1014.8
20260901175525 83 225 2.6 7.8 0.00 0.00 0.00 43 1014.9
20260901175021 82 271 1.7 8.7 0.00 0.00 0.00 43 1015.0
20260901174534 82 0 2.6 8.7 0.00 0.00 0.00 45 1014.9
20260901174020 83 227 1.7 8.7 0.00 0.00 0.00 43 1015.0
20260901173524 83 227 2.6 7.0 0.00 0.00 0.00 44 1015.2
20260901173044 83 229 1.7 3.5 0.00 0.00 0.00 45 1015.2
20260901172519 84 227 0.0 3.5 0.00 0.00 0.00 46 1015.2
20260901172017 84 229 0.0 3.5 0.00 0.00 0.00 46 1015.2
20260901171537 83 229 0.9 3.5 0.00 0.00 0.00 48 1015.3
20260901171019 83 284 0.9 3.5 0.00 0.00 0.00 48 1015.3
20260901170523 82 263 0.0 4.3 0.00 0.00 0.00 47 1015.4
20260901170036 81 0 0.9 7.0 0.00 0.00 0.00 50 1015.4
20260901165520 80 230 0.9 7.8 0.00 0.00 0.00 49 1015.5
20260901165021 80 246 2.6 7.8 0.00 0.00 0.00 53 1015.5
20260901164537 81 232 0.9 6.1 0.00 0.00 0.00 52 1015.5
20260901164020 81 232 1.7 6.1 0.00 0.00 0.00 52 1015.6
20260901163523 82 0 0.0 2.6 0.00 0.00 0.00 50 1015.7
20260901163039 81 0 0.0 3.5 0.00 0.00 0.00 52 1015.8
20260901162519 80 0 0.0 4.3 0.00 0.00 0.00 53 1015.8
20260901162018 80 0 0.9 4.3 0.00 0.00 0.00 53 1015.8
20260901161547 80 0 0.0 3.5 0.00 0.00 0.00 52 1015.8
20260901161022 80 0 0.0 3.5 0.00 0.00 0.00 55 1015.8
20260901160520 79 229 0.0 4.3 0.00 0.00 0.00 56 1015.8
20260901160037 79 0 0.0 4.3 0.00 0.00 0.00 59 1015.7
20260901155520 79 229 1.7 3.5 0.00 0.00 0.00 55 1015.9
20260901155021 79 0 0.9 3.5 0.00 0.00 0.00 56 1015.9
20260901154537 79 0 0.9 3.5 0.00 0.00 0.00 58 1016.0
20260901154023 80 229 0.0 1.7 0.00 0.00 0.00 60 1016.1
20260901153520 79 0 0.0 2.6 0.00 0.00 0.00 65 1016.0
20260901153044 77 0 0.0 2.6 0.00 0.00 0.00 62 1016.1
20260901152516 77 229 1.7 2.6 0.00 0.00 0.00 61 1016.1
20260901152016 77 229 0.0 1.7 0.00 0.00 0.00 65 1016.1
20260901151535 76 229 0.0 1.7 0.00 0.00 0.00 63 1016.2
20260901151022 76 0 0.0 1.7 0.00 0.00 0.00 68 1016.2
20260901150525 75 0 0.0 2.6 0.00 0.00 0.00 70 1016.1
20260901150035 74 0 0.0 2.6 0.00 0.00 0.00 70 1016.1
20260901145521 74 0 0.0 0.9 0.00 0.00 0.00 72 1016.2
20260901145019 74 0 0.0 1.7 0.00 0.00 0.00 72 1016.1
20260901144534 74 0 0.0 1.7 0.00 0.00 0.00 72 1016.0
20260901144025 73 229 0.0 0.9 0.00 0.00 0.00 74 1016.0
20260901143520 73 0 0.0 0.9 0.00 0.00 0.00 76 1016.0
20260901143035 72 0 0.0 1.7 0.00 0.00 0.00 79 1015.9
20260901142516 71 229 0.0 4.3 0.00 0.00 0.00 82 1016.0
20260901142023 70 229 0.0 4.3 0.00 0.00 0.00 79 1015.9
20260901141544 70 0 0.0 1.7 0.00 0.00 0.00 82 1015.9
20260901141026 69 349 0.0 1.7 0.00 0.00 0.00 84 1015.9
20260901140524 68 0 0.0 0.0 0.00 0.00 0.00 88 1015.9
20260901140035 66 0 0.0 0.0 0.00 0.00 0.00 92 1016.0
20260901135524 65 0 0.0 0.0 0.00 0.00 0.00 93 1016.0
20260901135021 65 0 0.0 0.0 0.00 0.00 0.00 95 1016.1
20260901134535 64 0 0.0 0.0 0.00 0.00 0.00 97 1016.1
20260901134021 63 0 0.0 0.0 0.00 0.00 0.00 98 1016.1
20260901133518 63 0 0.0 0.0 0.00 0.00 0.00 100 1016.1
20260901133037 62 0 0.0 0.0 0.00 0.00 0.00 100 1016.2
20260901132520 61 0 0.0 0.0 0.00 0.00 0.00 100 1016.1
20260901132020 60 0 0.0 0.0 0.00 0.00 0.00 100 1016.0
20260901131536 60 0 0.0 0.0 0.00 0.00 0.00 100 1016.1
20260901131021 59 0 0.0 0.0 0.00 0.00 0.00 100 1016.0
20260901130521 59 0 0.0 0.0 0.00 0.00 0.00 100 1015.9
20260901130032 59 0 0.0 0.0 0.00 0.00 0.00 100 1015.8
20260901125521 58 0 0.0 0.0 0.00 0.00 0.00 100 1015.8
20260901125018 58 0 0.0 0.0 0.00 0.00 0.00 99 1015.8
20260901124540 58 0 0.0 0.0 0.00 0.00 0.00 99 1015.7
20260901124016 58 0 0.0 0.0 0.00 0.00 0.00 99 1015.7
20260901123520 58 0 0.0 0.0 0.00 0.00 0.00 99 1015.6
20260901123040 58 0 0.0 0.0 0.00 0.00 0.00 99 1015.6
20260901122524 58 0 0.0 0.0 0.00 0.00 0.00 100 1015.5
20260901122019 58 0 0.0 0.0 0.00 0.00 0.00 100 1015.5
20260901121538 58 0 0.0 0.0 0.00 0.00 0.00 100 1015.6
20260901121024 58 0 0.0 0.0 0.00 0.00 0.00 100 1015.5
20260901120521 57 0 0.0 0.0 0.00 0.00 0.00 100 1015.4
20260901120036 57 0 0.0 0.0 0.00 0.00 0.00 99 1015.4
20260901115523 57 0 0.0 0.0 0.00 0.00 0.00 99 1015.4
20260901115025 56 0 0.0 0.0 0.00 0.00 0.00 99 1015.3
20260901114536 57 0 0.0 0.0 0.00 0.00 0.00 99 1015.2
20260901114019 57 0 0.0 0.0 0.00 0.00 0.00 99 1015.1
20260901113520 57 0 0.0 0.0 0.00 0.00 0.00 99 1015.1
20260901113037 57 0 0.0 0.0 0.00 0.00 0.00 99 1015.1
20260901112521 56 0 0.0 0.0 0.00 0.00 0.00 98 1014.9
20260901112017 57 0 0.0 0.0 0.00 0.00 0.00 98 1014.8
20260901111535 57 0 0.0 0.0 0.00 0.00 0.00 99 1014.7
20260901111018 57 0 0.0 0.0 0.00 0.00 0.00 99 1014.7
20260901110515 57 0 0.0 0.0 0.00 0.00 0.00 98 1014.6
20260901110037 58 0 0.0 0.0 0.00 0.00 0.00 99 1014.7
20260901105520 58 0 0.0 0.0 0.00 0.00 0.00 99 1014.6
20260901105022 58 0 0.0 0.0 0.00 0.00 0.00 99 1014.6
20260901104540 57 0 0.0 0.0 0.00 0.00 0.00 99 1014.6
20260901104020 57 0 0.0 0.0 0.00 0.00 0.00 99 1014.7
20260901103519 57 0 0.0 0.0 0.00 0.00 0.00 98 1014.7
20260901103037 57 0 0.0 0.0 0.00 0.00 0.00 98 1014.7
20260901102525 57 0 0.0 0.0 0.00 0.00 0.00 98 1014.7
20260901102017 58 0 0.0 0.0 0.00 0.00 0.00 99 1014.7
20260901101538 58 0 0.0 0.0 0.00 0.00 0.00 99 1014.8
20260901101018 58 0 0.0 0.0 0.00 0.00 0.00 98 1014.7
20260901100516 58 0 0.0 0.0 0.00 0.00 0.00 99 1014.7
20260901100034 57 0 0.0 0.0 0.00 0.00 0.00 98 1014.7
20260901095521 58 0 0.0 0.0 0.00 0.00 0.00 98 1014.7
20260901095021 58 0 0.0 0.0 0.00 0.00 0.00 98 1014.6
20260901094538 58 0 0.0 0.0 0.00 0.00 0.00 98 1014.7
20260901094020 58 0 0.0 0.0 0.00 0.00 0.00 98 1014.7
20260901093519 58 0 0.0 0.0 0.00 0.00 0.00 98 1014.7
20260901093035 58 0 0.0 0.0 0.00 0.00 0.00 98 1014.7
20260901092518 59 0 0.0 0.0 0.00 0.00 0.00 98 1014.7
20260901092021 59 0 0.0 0.0 0.00 0.00 0.00 98 1014.6
20260901091535 58 0 0.0 0.0 0.00 0.00 0.00 98 1014.6
20260901091017 59 0 0.0 0.0 0.00 0.00 0.00 98 1014.7
20260901090515 59 0 0.0 0.0 0.00 0.00 0.00 98 1014.7
20260901090034 58 0 0.0 0.0 0.00 0.00 0.00 97 1014.6
20260901085519 59 0 0.0 0.0 0.00 0.00 0.00 98 1014.6
20260901085021 59 0 0.0 0.0 0.00 0.00 0.00 98 1014.6
20260901084534 59 0 0.0 0.0 0.00 0.00 0.00 97 1014.6
20260901084023 60 0 0.0 0.0 0.00 0.00 0.00 98 1014.7
20260901083518 60 0 0.0 0.0 0.00 0.00 0.00 99 1014.7
20260901083036 59 0 0.0 0.0 0.00 0.00 0.00 98 1014.7
20260901082520 59 0 0.0 0.0 0.00 0.00 0.00 98 1014.7
20260901082018 59 0 0.0 0.0 0.00 0.00 0.00 98 1014.7
20260901081535 59 0 0.0 0.0 0.00 0.00 0.00 97 1014.8
20260901081020 60 0 0.0 0.0 0.00 0.00 0.00 98 1014.6
20260901080522 59 0 0.0 0.0 0.00 0.00 0.00 97 1014.7
20260901080038 60 0 0.0 0.0 0.00 0.00 0.00 97 1014.8
20260901075520 61 0 0.0 0.0 0.00 0.00 0.00 98 1014.7
20260901075020 61 0 0.0 0.0 0.00 0.00 0.00 98 1014.7
20260901074543 61 0 0.0 0.0 0.00 0.00 0.00 98 1014.7
20260901074019 61 0 0.0 0.0 0.00 0.00 0.00 98 1014.8
20260901073522 61 0 0.0 0.0 0.00 0.00 0.00 98 1014.7
20260901073039 61 0 0.0 0.0 0.00 0.00 0.00 98 1014.8
20260901072520 61 0 0.0 0.0 0.00 0.00 0.00 98 1014.8
20260901072016 62 0 0.0 0.0 0.00 0.00 0.00 98 1014.9
20260901071536 62 0 0.0 0.0 0.00 0.00 0.00 98 1014.8
20260901071022 62 0 0.0 0.0 0.00 0.00 0.00 98 1014.8
20260901070523 62 0 0.0 0.0 0.00 0.00 0.00 98 1014.8